CW9335 Weather Reports


Display with metric or nautical units.
time (UTC)temp
F
wind
direction
speed
MPH
gust
MPH
rain 1hr
in
rain 24hr
in
rain mn
in
humidity
%
barometer
mb
20260507184537 53 0.0 0.0 0.00 0.01 0.01 81 1013.6
20260507183537 53 0.0 0.0 0.00 0.01 0.01 76 1013.2
20260507182517 53 338 1.0 1.0 0.00 0.01 0.01 75 1013.2
20260507181516 53 0.0 0.0 0.00 0.01 0.01 74 1013.5
20260507180516 53 0.0 0.0 0.00 0.01 0.01 77 1013.8
20260507175517 53 0.0 0.0 0.00 0.01 0.01 80 1013.6
20260507174516 52 0.0 0.0 0.00 0.01 0.01 82 1013.7
20260507173516 52 0.0 0.0 0.00 0.01 0.01 76 1014.0
20260507172516 53 0.0 0.0 0.00 0.01 0.01 73 1013.9
20260507171516 54 68 1.0 2.0 0.00 0.01 0.01 69 1013.9
20260507170516 54 45 1.0 2.0 0.00 0.01 0.01 70 1014.0
20260507165536 54 0.0 1.0 0.00 0.01 0.01 71 1014.0
20260507164516 54 0.0 1.0 0.00 0.01 0.01 76 1014.1
20260507163516 55 0.0 1.0 0.00 0.01 0.01 72 1014.1
20260507162536 55 0.0 2.0 0.00 0.01 0.01 71 1014.4
20260507161516 55 0.0 0.0 0.00 0.01 0.01 69 1014.5
20260507160517 55 0.0 0.0 0.00 0.01 0.01 68 1014.5
20260507155536 55 270 1.0 2.0 0.00 0.01 0.01 69 1014.7
20260507154516 55 90 1.0 2.0 0.00 0.01 0.01 70 1014.9
20260507153516 55 248 1.0 2.0 0.00 0.01 0.01 71 1014.9
20260507152521 55 23 1.0 3.0 0.00 0.01 0.01 71 1014.7
20260507151516 56 23 1.0 3.0 0.00 0.01 0.01 71 1014.5
20260507150516 56 0.0 1.0 0.00 0.01 0.01 73 1014.5
20260507145516 55 0.0 0.0 0.00 0.02 0.01 72 1014.8
20260507144516 55 23 1.0 2.0 0.00 0.02 0.01 71 1014.8
20260507143516 55 45 3.0 9.0 0.00 0.02 0.01 73 1014.6
20260507142516 55 23 1.0 2.0 0.00 0.02 0.01 73 1014.9
20260507141516 55 0.0 1.0 0.00 0.03 0.01 76 1014.9
20260507140537 55 0 1.0 2.0 0.00 0.04 0.01 75 1014.9
20260507135516 55 158 1.0 3.0 0.00 0.05 0.01 75 1015.0
20260507134516 55 0.0 0.0 0.00 0.05 0.01 78 1015.1
20260507133516 55 23 2.0 4.0 0.00 0.07 0.01 78 1015.3
20260507132516 55 0.0 0.0 0.00 0.07 0.01 81 1015.0
20260507131516 55 0.0 0.0 0.00 0.08 0.01 80 1014.8
20260507130516 55 45 1.0 3.0 0.00 0.09 0.01 81 1015.0
20260507125516 55 68 1.0 2.0 0.00 0.09 0.01 83 1014.9
20260507124516 55 0.0 0.0 0.00 0.09 0.01 83 1014.6
20260507123516 55 23 1.0 3.0 0.00 0.09 0.01 83 1014.7
20260507122516 55 0.0 1.0 0.00 0.09 0.01 82 1015.0
20260507121516 55 0.0 0.0 0.00 0.09 0.01 84 1014.7
20260507120516 55 0.0 1.0 0.00 0.09 0.01 84 1014.3
20260507115536 55 0.0 0.0 0.00 0.09 0.01 84 1014.5
20260507114516 54 0.0 0.0 0.00 0.09 0.01 85 1014.3
20260507113516 54 0.0 1.0 0.00 0.09 0.01 85 1014.3
20260507112516 54 0.0 0.0 0.00 0.09 0.01 85 1014.2
20260507111516 54 0.0 1.0 0.00 0.09 0.01 86 1013.9
20260507110516 54 0.0 0.0 0.00 0.09 0.01 86 1013.8
20260507105516 54 0.0 1.0 0.00 0.09 0.01 87 1013.7
20260507104515 54 0.0 1.0 0.00 0.09 0.01 87 1013.8
20260507103516 54 0.0 2.0 0.00 0.09 0.01 87 1014.1
20260507102516 54 0.0 1.0 0.00 0.09 0.01 88 1013.7
20260507101516 54 0.0 0.0 0.00 0.09 0.01 87 1013.6
20260507100556 54 0.0 1.0 0.00 0.09 0.01 88 1013.8
20260507095515 54 0.0 1.0 0.00 0.09 0.01 88 1013.3
20260507094556 54 0.0 1.0 0.00 0.09 0.01 87 1013.0
20260507093515 55 23 1.0 2.0 0.00 0.09 0.01 88 1013.5
20260507092515 55 45 1.0 3.0 0.00 0.09 0.01 88 1013.6
20260507091538 55 0.0 0.0 0.00 0.09 0.01 89 1013.5
20260507090518 55 0.0 0.0 0.00 0.09 0.01 89 1013.5
20260507085517 55 0.0 1.0 0.00 0.09 0.01 89 1013.5
20260507084517 55 0.0 0.0 0.01 0.09 0.01 90 1013.3
20260507083517 56 90 1.0 2.0 0.01 0.09 0.01 91 1013.4
20260507082518 56 45 2.0 3.0 0.01 0.09 0.01 91 1013.1
20260507081518 56 203 2.0 3.0 0.01 0.09 0.01 91 1012.9
20260507080517 56 0.0 2.0 0.01 0.09 0.01 90 1013.2
20260507075538 56 225 1.0 2.0 0.01 0.09 0.01 90 1013.3
20260507074518 57 0.0 0.0 0.00 0.08 0.00 90 1013.5
20260507073518 57 0.0 2.0 0.00 0.08 0.00 91 1012.7
20260507072538 57 0.0 0.0 0.00 0.08 0.00 91 1012.7
20260507071517 57 23 1.0 2.0 0.00 0.08 0.00 91 1012.3
20260507070518 57 0.0 1.0 0.00 0.08 0.00 91 1012.1
20260507065517 58 270 1.0 1.0 0.00 0.08 0.00 92 1012.1
20260507064517 59 315 1.0 2.0 0.00 0.08 0.00 93 1012.9
20260507063518 59 293 1.0 3.0 0.00 0.08 0.00 93 1012.9
20260507062517 61 68 1.0 1.0 0.00 0.08 0.00 93 1012.5
20260507061517 63 0.0 0.0 0.00 0.08 0.00 94 1012.7
20260507060517 64 0.0 0.0 0.00 0.08 0.00 94 1012.4
20260507055517 63 0.0 0.0 0.00 0.08 0.00 94 1012.5
20260507054517 64 0.0 0.0 0.00 0.08 0.00 94 1012.1
20260507053517 64 0.0 0.0 0.00 0.08 0.00 93 1011.4
20260507052517 64 0.0 0.0 0.00 0.08 0.00 93 1011.4
20260507051517 64 0.0 0.0 0.00 0.08 0.00 93 1011.3
20260507050517 64 0.0 0.0 0.00 0.08 0.00 92 1011.3
20260507045517 64 0.0 0.0 0.00 0.08 0.00 92 1011.9
20260507044517 65 0.0 0.0 0.00 0.08 0.00 92 1012.2
20260507043517 65 0.0 0.0 0.00 0.08 0.00 91 1012.4
20260507042537 65 0.0 0.0 0.00 0.08 0.00 91 1012.2
20260507041517 65 0.0 0.0 0.00 0.08 0.00 90 1011.9
20260507040538 65 0.0 0.0 0.00 0.08 0.00 89 1011.9
20260507035517 66 0.0 0.0 0.00 0.08 0.08 88 1012.0
20260507034517 66 0.0 0.0 0.00 0.08 0.08 87 1012.3
20260507033517 65 0.0 0.0 0.00 0.08 0.08 89 1012.4
20260507032518 65 0.0 0.0 0.00 0.08 0.08 89 1012.1
20260507031518 65 0.0 0.0 0.00 0.08 0.08 88 1012.1
20260507030517 65 0.0 0.0 0.00 0.08 0.08 88 1011.8
20260507025517 66 0.0 0.0 0.00 0.08 0.08 86 1012.2
20260507024518 66 0.0 0.0 0.00 0.08 0.08 86 1012.3
20260507023538 66 0.0 0.0 0.00 0.08 0.08 86 1012.1
20260507022517 66 0.0 1.0 0.00 0.08 0.08 86 1011.7
20260507021517 66 0.0 0.0 0.00 0.08 0.08 86 1011.5
20260507020517 66 0.0 0.0 0.00 0.08 0.08 87 1011.3
20260507015517 65 0.0 0.0 0.00 0.08 0.08 87 1011.5
20260507014517 65 0.0 0.0 0.00 0.08 0.08 87 1011.7
20260507013517 66 0.0 0.0 0.00 0.08 0.08 86 1011.6
20260507012517 66 0.0 0.0 0.00 0.08 0.08 86 1011.8
20260507011537 66 0.0 1.0 0.00 0.08 0.08 86 1012.0
20260507010517 66 0.0 0.0 0.00 0.08 0.08 87 1012.0
20260507005517 66 0.0 0.0 0.00 0.08 0.08 86 1011.9
20260507004517 67 0.0 0.0 0.00 0.08 0.08 84 1011.8
20260507003517 67 0.0 1.0 0.00 0.08 0.08 84 1011.8
20260507002807 67 0.0 0.0 0.00 0.08 0.08 84 1011.7
20260507002418 67 0.0 0.0 0.00 0.08 0.08 84 1011.7
20260507002350 67 0.0 0.0 0.00 0.08 0.08 84 1011.9
20260507001318 67 0.0 0.0 0.00 0.08 0.08 84 1011.9
20260507000317 67 0.0 1.0 0.00 0.08 0.08 83 1011.6
20260506235317 68 0.0 0.0 0.00 0.08 0.08 82 1011.5
20260506234317 68 0.0 0.0 0.00 0.08 0.08 81 1011.8
20260506233337 68 0.0 0.0 0.00 0.08 0.08 81 1011.9
20260506232317 68 0.0 0.0 0.00 0.08 0.08 81 1011.8
20260506231317 68 0.0 2.0 0.00 0.08 0.08 83 1011.5
20260506230317 69 0.0 1.0 0.00 0.08 0.08 81 1011.4
20260506225317 69 338 1.0 2.0 0.00 0.08 0.08 80 1011.3
20260506224317 70 0.0 1.0 0.00 0.08 0.08 81 1011.3
20260506223337 70 113 1.0 1.0 0.00 0.08 0.08 80 1011.5
20260506222317 70 0.0 1.0 0.00 0.08 0.08 79 1011.3
20260506221317 70 0.0 0.0 0.00 0.08 0.08 81 1011.2
20260506220317 70 0.0 1.0 0.00 0.08 0.08 81 1011.4
20260506215317 70 0.0 1.0 0.00 0.08 0.08 80 1011.6
20260506214317 70 0.0 1.0 0.00 0.08 0.08 79 1011.4
20260506213316 69 0.0 1.0 0.00 0.08 0.08 79 1011.1
20260506212317 69 113 1.0 2.0 0.00 0.08 0.08 79 1011.0
20260506211316 69 0.0 1.0 0.00 0.08 0.08 79 1011.1
20260506210316 70 23 1.0 2.0 0.00 0.08 0.08 79 1011.3
20260506205316 70 225 1.0 2.0 0.00 0.08 0.08 79 1011.2
20260506204337 70 180 1.0 4.0 0.00 0.08 0.08 78 1011.3
20260506203317 70 248 1.0 2.0 0.00 0.08 0.08 76 1011.2
20260506202316 70 248 1.0 2.0 0.00 0.08 0.08 76 1011.3
20260506201317 70 270 2.0 4.0 0.00 0.08 0.08 79 1011.2
20260506200316 69 225 2.0 4.0 0.00 0.08 0.08 78 1011.2
20260506195317 69 248 1.0 3.0 0.00 0.08 0.08 79 1011.0
20260506194316 69 248 2.0 4.0 0.00 0.08 0.08 80 1011.3
20260506193316 67 0.0 1.0 0.00 0.08 0.08 83 1011.4
20260506192337 66 0.0 0.0 0.00 0.08 0.08 83 1011.3
20260506191337 66 0.0 1.0 0.00 0.08 0.08 83 1011.6
20260506190357 66 0.0 1.0 0.00 0.08 0.08 83 1011.8